Weather in Avneporog

Russia / Republic of Karelia     65°00′28″N   33°45′07″E
temp.,
°C
wind,
m/s
gust,
m/s
humid.,
%
clouds,
%
prec.,
mm/h
press.,
hPa
HPBL,
m
3 march, wed
wed300:00−6wnw4119131 0.0 1006318
03:00−6w4119318 0.0 1006310
06:00−6wnw4119331 0.0 1004343
09:00−5wnw4109264 0.0 1003413
12:00−4wnw598589 0.0 1001590
15:00−3wnw478892 0.1 999725
18:00−5nnw2695100 0.1 998254
21:00−7nnw2697100 0.3 999160
4 march, thu
thu400:00−11nnw239586 0.0 99953
03:00−12nw339449 0.0 100182
06:00−13nw349614 0.0 100182
09:00−12nw379528 0.0 1001179
12:00−8wnw368980 0.0 1001327
15:00−7nw479069 0.0 1001592
18:00−7n3796100 0.3 1002374
21:00−10nne3892100 0.5 1003350
5 march, fri
fri500:00−13n3889100 0.0 1004188
03:00−15nnw239191 0.0 100663
06:00−13wnw2296100 0.3 100770
09:00−14w249796 0.5 100798
12:00−10nw379058 0.0 1008389
15:00−7nw488472 0.0 1008865
18:00−9nw3691100 0.1 1009147
21:00−12wnw3693100 0.1 1010119
6 march, sat
sat600:00−13w339394 0.0 101083
03:00−14w369561 0.0 1009134
06:00−15w379668 0.0 1007134
09:00−15wsw379653 0.0 1005161
12:00−11sw249145 0.0 1003245
15:00−9s359070 0.0 999313
18:00−10se3695100 0.0 995248
21:00−10ese4995100 0.3 991359
7 march, sun
sun700:00−10e51094100 0.8 989434
03:00−11ene61194100 1.4 989516
06:00−11ene71393100 0.9 990679
09:00−14ne81593100 1.6 993605
12:00−16nne81592100 0.3 998565
15:00−16nne81590100 0.4 1001649
18:00−16nne71486100 0.1 1003739
21:00−18nne6148584 0.1 1006646